• In Netherlands
  • List of Countries
  • For 7 days
  • Water Temperature
  • Satellite Maps
  • Weather Map
  • Weather Widgets
  • user-avatar
    Login

    Hourly Weather Kaprun

    Today, 29 March, Wednesday

    Time Temperature Precipitation Wind Pressure Humidity
    00:00 -2°C° 0 mm 2 mps 599 mmHg 95%
    01:00 -1°C° 0 mm 2 mps 600 mmHg 94%
    02:00 -1°C° 0 mm 2 mps 600 mmHg 94%
    03:00 -2°C° 0 mm 2 mps 600 mmHg 94%
    04:00 -2°C° 0 mm 2 mps 600 mmHg 94%
    05:00 -2°C° 0 mm 2 mps 600 mmHg 94%
    06:00 -1°C° 0 mm 2 mps 601 mmHg 94%
    07:00 -1°C° 0 mm 2 mps 601 mmHg 94%
    08:00 +2°C° 0 mm 1 mps 601 mmHg 89%
    09:00 +4°C° 0 mm 1 mps 602 mmHg 84%
    10:00 +5°C° 0 mm 1 mps 603 mmHg 79%
    11:00 +6°C° 0 mm 1 mps 603 mmHg 77%
    12:00 +7°C° 0 mm 1 mps 603 mmHg 75%
    13:00 +7°C° 0 mm 1 mps 603 mmHg 73%
    14:00 +7°C° 0 mm 1 mps 603 mmHg 74%
    15:00 +7°C° 0 mm 1 mps 602 mmHg 76%
    16:00 +7°C° 0 mm 1 mps 602 mmHg 77%
    17:00 +5°C° 0 mm 1 mps 601 mmHg 84%
    18:00 +3°C° 0 mm 1 mps 601 mmHg 90%
    19:00 +1°C° 0 mm 1 mps 600 mmHg 96%
    20:00 +1°C° 0 mm 1 mps 600 mmHg 96%
    21:00 +1°C° 0 mm 1 mps 601 mmHg 96%
    22:00 +1°C° 0 mm 1 mps 601 mmHg 96%
    23:00 +1°C° 0 mm 1 mps 601 mmHg 96%

    Tomorrow, 30 March, Thursday

    Time Temperature Precipitation Wind Pressure Humidity
    00:00 0°C° 0 mm 1 mps 601 mmHg 96%
    01:00 0°C° 0 mm 1 mps 601 mmHg 96%
    02:00 -1°C° 0 mm 1 mps 601 mmHg 96%
    03:00 -1°C° 0 mm 1 mps 601 mmHg 96%
    04:00 -1°C° 0 mm 1 mps 601 mmHg 96%
    05:00 0°C° 0 mm 1 mps 601 mmHg 94%
    06:00 0°C° 0 mm 1 mps 601 mmHg 93%
    07:00 0°C° 0 mm 1 mps 601 mmHg 91%
    08:00 +2°C° 0 mm 1 mps 602 mmHg 84%
    09:00 +4°C° 0 mm 1 mps 603 mmHg 77%
    10:00 +5°C° 0 mm 0 mps 604 mmHg 70%
    11:00 +6°C° 0 mm 0 mps 604 mmHg 68%
    12:00 +8°C° 0 mm 1 mps 604 mmHg 66%
    13:00 +9°C° 0 mm 1 mps 604 mmHg 64%
    14:00 +9°C° 0 mm 1 mps 604 mmHg 65%
    15:00 +8°C° 0 mm 1 mps 604 mmHg 66%
    16:00 +8°C° 0 mm 1 mps 603 mmHg 68%
    17:00 +6°C° 0 mm 1 mps 602 mmHg 76%
    18:00 +3°C° 0 mm 1 mps 601 mmHg 85%
    19:00 0°C° 0 mm 1 mps 600 mmHg 93%
    20:00 0°C° 0 mm 1 mps 600 mmHg 93%
    21:00 +1°C° 0 mm 1 mps 600 mmHg 93%
    22:00 +1°C° 0 mm 1 mps 600 mmHg 92%
    23:00 -1°C° 0 mm 2 mps 600 mmHg 92%

    Day after tomorrow, 31 March, Friday

    Time Temperature Precipitation Wind Pressure Humidity
    00:00 -1°C° 0 mm 2 mps 600 mmHg 92%
    01:00 -1°C° 0 mm 2 mps 600 mmHg 91%
    02:00 -1°C° 0 mm 2 mps 600 mmHg 92%
    03:00 -1°C° 0 mm 2 mps 600 mmHg 92%
    04:00 -2°C° 0 mm 2 mps 599 mmHg 92%
    05:00 -1°C° 0 mm 2 mps 599 mmHg 92%
    06:00 -1°C° 0 mm 2 mps 599 mmHg 92%
    07:00 +1°C° 0 mm 2 mps 600 mmHg 91%
    08:00 +3°C° 0 mm 2 mps 600 mmHg 84%
    09:00 +5°C° 0 mm 2 mps 601 mmHg 76%
    10:00 +7°C° 0 mm 2 mps 601 mmHg 69%
    11:00 +8°C° 0 mm 2 mps 601 mmHg 66%
    12:00 +8°C° 0 mm 2 mps 601 mmHg 62%
    13:00 +9°C° 0 mm 2 mps 601 mmHg 59%
    14:00 +9°C° 0 mm 2 mps 601 mmHg 61%
    15:00 +9°C° 0 mm 2 mps 600 mmHg 64%
    16:00 +8°C° 0 mm 2 mps 600 mmHg 66%
    17:00 +6°C° 0 mm 2 mps 599 mmHg 76%
    18:00 +4°C° 0 mm 2 mps 597 mmHg 85%
    19:00 +1°C° 0 mm 2 mps 596 mmHg 94%
    20:00 +1°C° 0 mm 2 mps 596 mmHg 94%
    21:00 +1°C° 0 mm 2 mps 596 mmHg 93%
    22:00 +1°C° 0 mm 2 mps 596 mmHg 93%
    23:00 -1°C° 0 mm 2 mps 596 mmHg 92%

    1 April, Saturday

    Time Temperature Precipitation Wind Pressure Humidity
    00:00 -1°C° 0 mm 2 mps 596 mmHg 92%
    01:00 -1°C° 0 mm 2 mps 596 mmHg 92%
    02:00 -1°C° 0 mm 2 mps 595 mmHg 93%
    03:00 -1°C° 0 mm 2 mps 595 mmHg 93%
    04:00 -1°C° 0 mm 2 mps 595 mmHg 93%
    05:00 -1°C° 0 mm 2 mps 595 mmHg 92%
    06:00 -1°C° 0 mm 2 mps 595 mmHg 91%
    07:00 -1°C° 0 mm 2 mps 595 mmHg 89%
    08:00 +2°C° 0 mm 2 mps 596 mmHg 82%
    09:00 +4°C° 0 mm 2 mps 596 mmHg 75%
    10:00 +6°C° 0 mm 2 mps 597 mmHg 67%
    11:00 +6°C° 0 mm 2 mps 597 mmHg 64%
    12:00 +7°C° 0 mm 2 mps 597 mmHg 62%
    13:00 +8°C° 0 mm 2 mps 597 mmHg 59%
    14:00 +7°C° 0.2 mm 2 mps 597 mmHg 61%
    15:00 +7°C° 0.2 mm 2 mps 596 mmHg 63%
    16:00 +7°C° 0.2 mm 2 mps 596 mmHg 65%
    17:00 +5°C° 0.2 mm 2 mps 595 mmHg 75%
    18:00 +2°C° 0.2 mm 2 mps 594 mmHg 84%
    19:00 -1°C° 0.2 mm 2 mps 593 mmHg 94%
    20:00 -1°C° 0 mm 2 mps 594 mmHg 93%
    21:00 -1°C° 0 mm 2 mps 594 mmHg 92%
    22:00 -1°C° 0 mm 2 mps 595 mmHg 92%
    23:00 -2°C° 0 mm 2 mps 595 mmHg 92%

    2 April, Sunday

    Time Temperature Precipitation Wind Pressure Humidity
    00:00 -2°C° 0 mm 2 mps 595 mmHg 92%
    01:00 -2°C° 0 mm 2 mps 594 mmHg 92%
    02:00 -3°C° 0 mm 2 mps 594 mmHg 92%
    03:00 -1°C° 0 mm 1 mps 594 mmHg 93%
    04:00 -2°C° 0 mm 1 mps 594 mmHg 93%
    05:00 -1°C° 0 mm 1 mps 595 mmHg 89%
    06:00 0°C° 0 mm 1 mps 596 mmHg 85%
    07:00 +1°C° 0 mm 1 mps 596 mmHg 81%
    08:00 +2°C° 0 mm 1 mps 597 mmHg 74%
    09:00 +4°C° 0 mm 1 mps 598 mmHg 67%
    10:00 +6°C° 0 mm 1 mps 599 mmHg 59%
    11:00 +7°C° 0 mm 1 mps 599 mmHg 58%
    12:00 +7°C° 0 mm 2 mps 600 mmHg 57%
    13:00 +7°C° 0 mm 2 mps 600 mmHg 56%
    14:00 +7°C° 0.1 mm 2 mps 600 mmHg 59%
    15:00 +6°C° 0.1 mm 2 mps 600 mmHg 63%
    16:00 +6°C° 0.1 mm 2 mps 599 mmHg 67%
    17:00 +5°C° 0.1 mm 1 mps 599 mmHg 77%
    18:00 +3°C° 0.1 mm 1 mps 598 mmHg 86%
    19:00 +1°C° 0.1 mm 1 mps 597 mmHg 96%
    20:00 0°C° 0 mm 0 mps 598 mmHg 96%
    21:00 -1°C° 0 mm 0 mps 598 mmHg 97%
    22:00 -1°C° 0 mm 0 mps 598 mmHg 97%
    23:00 -1°C° 0 mm 0 mps 598 mmHg 97%

    3 April, Monday

    Time Temperature Precipitation Wind Pressure Humidity
    00:00 -1°C° 0 mm 0 mps 598 mmHg 97%
    01:00 -1°C° 0 mm 0 mps 599 mmHg 97%
    02:00 0°C° 0 mm 1 mps 599 mmHg 97%
    03:00 +1°C° 0 mm 1 mps 599 mmHg 97%
    04:00 +1°C° 0 mm 1 mps 599 mmHg 97%
    05:00 +1°C° 0.1 mm 1 mps 599 mmHg 95%
    06:00 +2°C° 0.1 mm 1 mps 600 mmHg 94%
    07:00 +2°C° 0.1 mm 1 mps 600 mmHg 93%
    08:00 +3°C° 0.1 mm 1 mps 600 mmHg 86%
    09:00 +4°C° 0.1 mm 1 mps 601 mmHg 80%
    10:00 +5°C° 0.1 mm 1 mps 601 mmHg 74%
    11:00 +6°C° 0.2 mm 1 mps 601 mmHg 73%
    12:00 +7°C° 0.2 mm 1 mps 601 mmHg 71%
    13:00 +7°C° 0.2 mm 1 mps 601 mmHg 70%
    14:00 +7°C° 0.5 mm 1 mps 601 mmHg 73%
    15:00 +6°C° 0.5 mm 1 mps 600 mmHg 76%
    16:00 +6°C° 0.5 mm 1 mps 600 mmHg 79%
    17:00 +5°C° 0.6 mm 1 mps 599 mmHg 85%
    18:00 +3°C° 0.6 mm 1 mps 599 mmHg 90%
    19:00 +2°C° 0.6 mm 1 mps 598 mmHg 96%
    20:00 +1°C° 0.5 mm 1 mps 598 mmHg 96%
    21:00 +1°C° 0.5 mm 1 mps 598 mmHg 97%
    22:00 +1°C° 0.5 mm 1 mps 598 mmHg 97%
    23:00 +1°C° 0.3 mm 1 mps 598 mmHg 97%
    Show more